,,Stat6,,Stat2,,Stat8,,Stat9,,Stat10,,Wind1,,Wind1,
time,status,PA1M_AVG,status,PR1M_SUM,status,RH1M_AVG,status,SR1M_AVG,status,TA1M_AVG,status,W1dAve1m,status,W1sAve1m,
2009-06-28, 00:00:00,VALID,917.099,VALID,0,VALID,100,VALID,-0.0849042,VALID,19.3179,VALID,15,VALID,0.00109012,
2009-06-28, 00:01:00,VALID,917.099,VALID,0,VALID,100,VALID,-0.101885,VALID,19.3244,VALID,359,VALID,0,
2009-06-28, 00:02:00,VALID,917.107,VALID,0,VALID,100,VALID,-0.101885,VALID,19.3082,VALID,4,VALID,0,
2009-06-28, 00:03:00,VALID,917.119,VALID,0,VALID,100,VALID,-0.101885,VALID,19.2982,VALID,13,VALID,0,
2009-06-28, 00:04:00,VALID,917.139,VALID,0,VALID,100,VALID,-0.101885,VALID,19.2855,VALID,24,VALID,0,
2009-06-28, 00:05:00,VALID,917.13,VALID,0,VALID,100,VALID,-0.101885,VALID,19.2695,VALID,13,VALID,0,
2009-06-28, 00:06:00,VALID,917.142,VALID,0,VALID,100,VALID,-0.0679233,VALID,19.2822,VALID,357,VALID,0,
2009-06-28, 00:07:00,VALID,917.134,VALID,0,VALID,100,VALID,-0.101885,VALID,19.2917,VALID,354,VALID,0,
2009-06-28, 00:08:00,VALID,917.122,VALID,0,VALID,100,VALID,-0.0849042,VALID,19.292,VALID,353,VALID,0,
2009-06-28, 00:09:00,VALID,917.119,VALID,0,VALID,100,VALID,-0.101885,VALID,19.3147,VALID,357,VALID,0,
2009-06-28, 00:10:00,VALID,917.1,VALID,0,VALID,100,VALID,-0.101885,VALID,19.3082,VALID,3,VALID,0,
2009-06-28, 00:11:00,VALID,917.088,VALID,0,VALID,100,VALID,-0.101885,VALID,19.2982,VALID,3,VALID,0,
2009-06-28, 00:12:00,VALID,917.092,VALID,0,VALID,100,VALID,-0.118866,VALID,19.3114,VALID,3,VALID,0,
2009-06-28, 00:13:00,VALID,917.083,VALID,0,VALID,100,VALID,-0.101885,VALID,19.3114,VALID,3,VALID,0,
2009-06-28, 00:14:00,VALID,917.079,VALID,0,VALID,100,VALID,-0.0849042,VALID,19.3147,VALID,3,VALID,0,
2009-06-28, 00:15:00,VALID,917.06,VALID,0,VALID,100,VALID,-0.0849042,VALID,19.3149,VALID,3,VALID,0,
2009-06-28, 00:16:00,VALID,917.075,VALID,0,VALID,100,VALID,-0.0849042,VALID,19.2693,VALID,12,VALID,0,
2009-06-28, 00:17:00,VALID,917.059,VALID,0,VALID,100,VALID,-0.0849042,VALID,19.2338,VALID,147,VALID,0,
2009-06-28, 00:18:00,VALID,917.056,VALID,0,VALID,100,VALID,-0.118866,VALID,19.2174,VALID,161,VALID,0,
2009-06-28, 00:19:00,VALID,917.06,VALID,0,VALID,100,VALID,-0.101885,VALID,19.2109,VALID,162,VALID,0,
2009-06-28, 00:20:00,VALID,917.072,VALID,0,VALID,100,VALID,-0.0849042,VALID,19.1819,VALID,167,VALID,0,
2009-06-28, 00:21:00,VALID,917.082,VALID,0,VALID,100,VALID,-0.0849042,VALID,19.162,VALID,167,VALID,0,
2009-06-28, 00:22:00,VALID,917.09,VALID,0,VALID,100,VALID,-0.0679233,VALID,19.1457,VALID,167,VALID,0.101563,
2009-06-28, 00:23:00,VALID,917.087,VALID,0,VALID,100,VALID,-0.0679233,VALID,19.1263,VALID,169,VALID,0.101744,
2009-06-28, 00:24:00,VALID,917.078,VALID,0,VALID,100,VALID,-0.0679233,VALID,19.1133,VALID,171,VALID,0.0012429,
2009-06-28, 00:25:00,VALID,917.075,VALID,0,VALID,100,VALID,-0.0339617,VALID,19.0971,VALID,168,VALID,0,
2009-06-28, 00:26:00,VALID,917.07,VALID,0,VALID,100,VALID,-0.0509425,VALID,19.1063,VALID,172,VALID,0,
2009-06-28, 00:27:00,VALID,917.068,VALID,0,VALID,100,VALID,-0.0509425,VALID,19.0899,VALID,173,VALID,0,
2009-06-28, 00:28:00,VALID,917.069,VALID,0,VALID,100,VALID,-0.0679233,VALID,19.0938,VALID,173,VALID,0,
2009-06-28, 00:29:00,VALID,917.056,VALID,0,VALID,100,VALID,-0.0169808,VALID,19.0774,VALID,171,VALID,0.0505859,
2009-06-28, 00:30:00,VALID,917.051,VALID,0,VALID,100,VALID,-0.0509425,VALID,19.0741,VALID,160,VALID,0,
2009-06-28, 00:31:00,VALID,917.058,VALID,0,VALID,100,VALID,-0.0679233,VALID,19.0509,VALID,158,VALID,0,
2009-06-28, 00:32:00,VALID,917.065,VALID,0,VALID,100,VALID,-0.0849042,VALID,19.0287,VALID,156,VALID,0.00872093,
2009-06-28, 00:33:00,VALID,917.065,VALID,0,VALID,100,VALID,-0.0849042,VALID,19.003,VALID,148,VALID,0.00486111,
2009-06-28, 00:34:00,VALID,917.081,VALID,0,VALID,100,VALID,-0.0849042,VALID,18.993,VALID,146,VALID,0,
2009-06-28, 00:35:00,VALID,917.074,VALID,0,VALID,100,VALID,-0.0509425,VALID,18.9898,VALID,134,VALID,0.0296148,
2009-06-28, 00:36:00,VALID,917.082,VALID,0,VALID,100,VALID,-0.0679233,VALID,18.9861,VALID,141,VALID,0.00635901,
2009-06-28, 00:37:00,VALID,917.084,VALID,0,VALID,100,VALID,-0.101885,VALID,18.9963,VALID,142,VALID,0.00114329,
2009-06-28, 00:38:00,VALID,917.101,VALID,0,VALID,100,VALID,-0.0849042,VALID,19.0127,VALID,140,VALID,0.040483,
2009-06-28, 00:39:00,VALID,917.11,VALID,0,VALID,100,VALID,-0.101885,VALID,19.0322,VALID,142,VALID,0.059304,
2009-06-28, 00:40:00,VALID,917.119,VALID,0,VALID,100,VALID,-0.101885,VALID,19.0517,VALID,141,VALID,0,
2009-06-28, 00:41:00,VALID,917.115,VALID,0,VALID,100,VALID,-0.0679233,VALID,19.0414,VALID,141,VALID,0,
2009-06-28, 00:42:00,VALID,917.112,VALID,0,VALID,100,VALID,0.0339617,VALID,19.037,VALID,146,VALID,0,
2009-06-28, 00:43:00,VALID,917.109,VALID,0,VALID,100,VALID,0.0509425,VALID,19.0175,VALID,150,VALID,0,
2009-06-28, 00:44:00,VALID,917.108,VALID,0,VALID,100,VALID,0.0509425,VALID,19.0145,VALID,155,VALID,0.00488281,
2009-06-28, 00:45:00,VALID,917.094,VALID,0,VALID,100,VALID,0.0169808,VALID,19.0145,VALID,156,VALID,0.00109012,
2009-06-28, 00:46:00,VALID,917.098,VALID,0,VALID,100,VALID,0,VALID,19.011,VALID,146,VALID,0,
2009-06-28, 00:47:00,VALID,917.086,VALID,0,VALID,100,VALID,0.0169808,VALID,19.0048,VALID,144,VALID,0,
2009-06-28, 00:48:00,VALID,917.076,VALID,0,VALID,100,VALID,0.0169808,VALID,19.0011,VALID,144,VALID,0,
2009-06-28, 00:49:00,VALID,917.062,VALID,0,VALID,100,VALID,0.0679233,VALID,19.0048,VALID,148,VALID,0,
2009-06-28, 00:50:00,VALID,917.048,VALID,0,VALID,100,VALID,0.0169808,VALID,19.0148,VALID,141,VALID,0,
2009-06-28, 00:51:00,VALID,917.03,VALID,0,VALID,100,VALID,0,VALID,19.008,VALID,124,VALID,0,
2009-06-28, 00:52:00,VALID,917.018,VALID,0,VALID,100,VALID,0.0169808,VALID,19.0078,VALID,126,VALID,0,
2009-06-28, 00:53:00,VALID,917.015,VALID,0,VALID,100,VALID,0.0169808,VALID,19.0113,VALID,124,VALID,0.00186012,
2009-06-28, 00:54:00,VALID,917.013,VALID,0,VALID,100,VALID,0.0509425,VALID,19.0046,VALID,122,VALID,0,
2009-06-28, 00:55:00,VALID,917.001,VALID,0,VALID,100,VALID,0.0509425,VALID,18.9758,VALID,113,VALID,0,
2009-06-28, 00:56:00,VALID,917.004,VALID,0,VALID,100,VALID,-0.0169808,VALID,18.9689,VALID,98,VALID,0,
2009-06-28, 00:57:00,VALID,917.004,VALID,0,VALID,100,VALID,-0.0509425,VALID,18.9576,VALID,92,VALID,0,
2009-06-28, 00:58:00,VALID,916.995,VALID,0,VALID,100,VALID,-0.101885,VALID,18.9314,VALID,90,VALID,0,
2009-06-28, 00:59:00,VALID,917,VALID,0,VALID,100,VALID,-0.0849042,VALID,18.9254,VALID,92,VALID,0,
2009-06-28, 01:00:00,VALID,917.001,VALID,0,VALID,100,VALID,-0.0849042,VALID,18.9286,VALID,102,VALID,0,
2009-06-28, 01:01:00,VALID,917.01,VALID,0,VALID,100,VALID,-0.118866,VALID,18.9059,VALID,107,VALID,0,
2009-06-28, 01:02:00,VALID,917.015,VALID,0,VALID,100,VALID,-0.101885,VALID,18.9027,VALID,139,VALID,0,
2009-06-28, 01:03:00,VALID,917.019,VALID,0,VALID,100,VALID,-0.118866,VALID,18.8992,VALID,132,VALID,0,
2009-06-28, 01:04:00,VALID,917.028,VALID,0,VALID,100,VALID,-0.0849042,VALID,18.8864,VALID,95,VALID,0,
2009-06-28, 01:05:00,VALID,917.019,VALID,0,VALID,100,VALID,-0.0849042,VALID,18.8473,VALID,91,VALID,0,
2009-06-28, 01:06:00,VALID,917.01,VALID,0,VALID,100,VALID,-0.0509425,VALID,18.8603,VALID,91,VALID,0,
2009-06-28, 01:07:00,VALID,917.001,VALID,0,VALID,100,VALID,0.0169808,VALID,18.8523,VALID,91,VALID,0,
2009-06-28, 01:08:00,VALID,916.989,VALID,0,VALID,100,VALID,0,VALID,18.8716,VALID,91,VALID,0,
2009-06-28, 01:09:00,VALID,917.003,VALID,0,VALID,100,VALID,0.0339617,VALID,18.8815,VALID,91,VALID,0,
2009-06-28, 01:10:00,VALID,916.993,VALID,0,VALID,100,VALID,0,VALID,18.8581,VALID,89,VALID,0,
2009-06-28, 01:11:00,VALID,917.005,VALID,0,VALID,100,VALID,0,VALID,18.8396,VALID,80,VALID,0,
2009-06-28, 01:12:00,VALID,916.999,VALID,0,VALID,100,VALID,0,VALID,18.8426,VALID,69,VALID,0,
2009-06-28, 01:13:00,VALID,917.002,VALID,0,VALID,100,VALID,0.0169808,VALID,18.8466,VALID,57,VALID,0,
2009-06-28, 01:14:00,VALID,917.013,VALID,0,VALID,100,VALID,0.0169808,VALID,18.8366,VALID,50,VALID,0,
2009-06-28, 01:15:00,VALID,917.004,VALID,0,VALID,100,VALID,-0.0169808,VALID,18.8227,VALID,46,VALID,0.0796494,
2009-06-28, 01:16:00,VALID,917.01,VALID,0,VALID,100,VALID,0.0509425,VALID,18.8197,VALID,54,VALID,0.023628,
2009-06-28, 01:17:00,VALID,917.003,VALID,0,VALID,100,VALID,0,VALID,18.8069,VALID,48,VALID,0,
2009-06-28, 01:18:00,VALID,917.002,VALID,0,VALID,100,VALID,0.0169808,VALID,18.8396,VALID,45,VALID,0,
2009-06-28, 01:19:00,VALID,917.002,VALID,0,VALID,100,VALID,0.0169808,VALID,18.8523,VALID,45,VALID,0,
2009-06-28, 01:20:00,VALID,917.007,VALID,0,VALID,100,VALID,0,VALID,18.8491,VALID,44,VALID,0,
2009-06-28, 01:21:00,VALID,917.028,VALID,0,VALID,100,VALID,0.0509425,VALID,18.8621,VALID,38,VALID,0,
2009-06-28, 01:22:00,VALID,917.042,VALID,0,VALID,100,VALID,0.0169808,VALID,18.8586,VALID,24,VALID,0,
2009-06-28, 01:23:00,VALID,917.042,VALID,0,VALID,100,VALID,0.0509425,VALID,18.8551,VALID,23,VALID,0,
2009-06-28, 01:24:00,VALID,917.059,VALID,0,VALID,100,VALID,0,VALID,18.8653,VALID,355,VALID,0,
2009-06-28, 01:25:00,VALID,917.059,VALID,0,VALID,100,VALID,0,VALID,18.8588,VALID,351,VALID,0,
2009-06-28, 01:26:00,VALID,917.072,VALID,0,VALID,100,VALID,0,VALID,18.8424,VALID,351,VALID,0,
2009-06-28, 01:27:00,VALID,917.063,VALID,0,VALID,100,VALID,0,VALID,18.8199,VALID,351,VALID,0,
2009-06-28, 01:28:00,VALID,917.058,VALID,0,VALID,100,VALID,0.0169808,VALID,18.8231,VALID,351,VALID,0,
2009-06-28, 01:29:00,VALID,917.046,VALID,0,VALID,100,VALID,0,VALID,18.8127,VALID,351,VALID,0,
2009-06-28, 01:30:00,VALID,917.046,VALID,0,VALID,100,VALID,0,VALID,18.8264,VALID,351,VALID,0,
2009-06-28, 01:31:00,VALID,917.044,VALID,0,VALID,100,VALID,0,VALID,18.8461,VALID,351,VALID,0,
2009-06-28, 01:32:00,VALID,917.041,VALID,0,VALID,100,VALID,0.0169808,VALID,18.8326,VALID,351,VALID,0,
2009-06-28, 01:33:00,VALID,917.042,VALID,0,VALID,100,VALID,0,VALID,18.8364,VALID,351,VALID,0,
2009-06-28, 01:34:00,VALID,917.048,VALID,0,VALID,100,VALID,0.0169808,VALID,18.8159,VALID,351,VALID,0,
2009-06-28, 01:35:00,VALID,917.04,VALID,0,VALID,100,VALID,0.0169808,VALID,18.7974,VALID,351,VALID,0,
2009-06-28, 01:36:00,VALID,917.074,VALID,0,VALID,100,VALID,0.0169808,VALID,18.7613,VALID,351,VALID,0,
2009-06-28, 01:37:00,VALID,917.084,VALID,0,VALID,100,VALID,0,VALID,18.7481,VALID,351,VALID,0,
2009-06-28, 01:38:00,VALID,917.111,VALID,0,VALID,100,VALID,0.0169808,VALID,18.7453,VALID,351,VALID,0,
2009-06-28, 01:39:00,VALID,917.124,VALID,0,VALID,100,VALID,0.0169808,VALID,18.7159,VALID,351,VALID,0,
2009-06-28, 01:40:00,VALID,917.132,VALID,0,VALID,100,VALID,0,VALID,18.683,VALID,351,VALID,0,
2009-06-28, 01:41:00,VALID,917.149,VALID,0,VALID,100,VALID,0,VALID,18.6672,VALID,351,VALID,0,
2009-06-28, 01:42:00,VALID,917.15,VALID,0,VALID,100,VALID,0,VALID,18.6255,VALID,351,VALID,0,
2009-06-28, 01:43:00,VALID,917.173,VALID,0,VALID,100,VALID,0.0169808,VALID,18.5799,VALID,351,VALID,0,
2009-06-28, 01:44:00,VALID,917.163,VALID,0,VALID,100,VALID,-0.0339617,VALID,18.5442,VALID,351,VALID,0,
2009-06-28, 01:45:00,VALID,917.167,VALID,0,VALID,100,VALID,0,VALID,18.5312,VALID,351,VALID,0,
2009-06-28, 01:46:00,VALID,917.173,VALID,0,VALID,100,VALID,0.0169808,VALID,18.5312,VALID,351,VALID,0,
2009-06-28, 01:47:00,VALID,917.162,VALID,0,VALID,100,VALID,0,VALID,18.5734,VALID,351,VALID,0,
2009-06-28, 01:48:00,VALID,917.147,VALID,0,VALID,100,VALID,0,VALID,18.6156,VALID,351,VALID,0,
2009-06-28, 01:49:00,VALID,917.145,VALID,0,VALID,100,VALID,0,VALID,18.635,VALID,351,VALID,0,
2009-06-28, 01:50:00,VALID,917.116,VALID,0,VALID,100,VALID,-0.0169808,VALID,18.6709,VALID,351,VALID,0,
2009-06-28, 01:51:00,VALID,917.075,VALID,0,VALID,100,VALID,-0.0169808,VALID,18.6707,VALID,351,VALID,0,
2009-06-28, 01:52:00,VALID,917.063,VALID,0,VALID,100,VALID,-0.0169808,VALID,18.6647,VALID,351,VALID,0,
2009-06-28, 01:53:00,VALID,917.038,VALID,0,VALID,100,VALID,-0.0169808,VALID,18.6383,VALID,5,VALID,0,
2009-06-28, 01:54:00,VALID,917.021,VALID,0,VALID,100,VALID,0,VALID,18.6447,VALID,56,VALID,0,
2009-06-28, 01:55:00,VALID,917.015,VALID,0,VALID,100,VALID,-0.0169808,VALID,18.7001,VALID,73,VALID,0,
2009-06-28, 01:56:00,VALID,917.026,VALID,0,VALID,100,VALID,0,VALID,18.7455,VALID,94,VALID,0,
2009-06-28, 01:57:00,VALID,917.048,VALID,0,VALID,100,VALID,-0.135847,VALID,18.7175,VALID,115,VALID,0,
2009-06-28, 01:58:00,VALID,917.055,VALID,0,VALID,100,VALID,-0.118866,VALID,18.6818,VALID,131,VALID,0,
2009-06-28, 01:59:00,VALID,917.069,VALID,0,VALID,100,VALID,-0.101885,VALID,18.6269,VALID,133,VALID,0,
2009-06-28, 02:00:00,VALID,917.064,VALID,0,VALID,100,VALID,-0.135847,VALID,18.588,VALID,138,VALID,0,
2009-06-28, 02:01:00,VALID,917.061,VALID,0,VALID,100,VALID,-0.135847,VALID,18.5556,VALID,146,VALID,0,
2009-06-28, 02:02:00,VALID,917.051,VALID,0,VALID,100,VALID,-0.169808,VALID,18.5199,VALID,142,VALID,0.0810547,
2009-06-28, 02:03:00,VALID,917.034,VALID,0,VALID,100,VALID,-0.101885,VALID,18.5002,VALID,139,VALID,0.0833939,
2009-06-28, 02:04:00,VALID,917.021,VALID,0,VALID,100,VALID,-0.118866,VALID,18.5324,VALID,140,VALID,0.0783253,
2009-06-28, 02:05:01,VALID,916.986,VALID,0,VALID,100,VALID,-0.118866,VALID,18.5815,VALID,144,VALID,0,
2009-06-28, 02:06:00,VALID,916.962,VALID,0,VALID,100,VALID,-0.101885,VALID,18.6165,VALID,134,VALID,0,
2009-06-28, 02:07:00,VALID,916.954,VALID,0,VALID,100,VALID,-0.101885,VALID,18.636,VALID,128,VALID,0,
2009-06-28, 02:08:00,VALID,916.94,VALID,0,VALID,100,VALID,-0.101885,VALID,18.6594,VALID,132,VALID,0,
2009-06-28, 02:09:00,VALID,916.937,VALID,0,VALID,100,VALID,-0.101885,VALID,18.6746,VALID,134,VALID,0,
2009-06-28, 02:10:00,VALID,916.931,VALID,0,VALID,100,VALID,-0.101885,VALID,18.6916,VALID,133,VALID,0,
2009-06-28, 02:11:00,VALID,916.919,VALID,0,VALID,100,VALID,-0.118866,VALID,18.6853,VALID,140,VALID,0.00457317,
2009-06-28, 02:12:00,VALID,916.909,VALID,0,VALID,100,VALID,-0.0339617,VALID,18.6804,VALID,138,VALID,0.00266768,
2009-06-28, 02:13:00,VALID,916.887,VALID,0,VALID,100,VALID,-0.0169808,VALID,18.6837,VALID,134,VALID,0.0012718,
2009-06-28, 02:14:01,VALID,916.865,VALID,0,VALID,100,VALID,-0.0169808,VALID,18.6936,VALID,134,VALID,0,
2009-06-28, 02:15:00,VALID,916.845,VALID,0,VALID,100,VALID,-0.0339617,VALID,18.6709,VALID,133,VALID,0,
2009-06-28, 02:16:00,VALID,916.814,VALID,0,VALID,100,VALID,-0.0339617,VALID,18.6383,VALID,130,VALID,0,
2009-06-28, 02:17:00,VALID,916.796,VALID,0,VALID,100,VALID,-0.0169808,VALID,18.6318,VALID,130,VALID,0,
2009-06-28, 02:18:01,VALID,916.778,VALID,0,VALID,100,VALID,0,VALID,18.6255,VALID,131,VALID,0,
2009-06-28, 02:19:01,VALID,916.76,VALID,0,VALID,100,VALID,0,VALID,18.6158,VALID,133,VALID,0,
2009-06-28, 02:20:00,VALID,916.755,VALID,0,VALID,100,VALID,0,VALID,18.5894,VALID,134,VALID,0,
2009-06-28, 02:21:00,VALID,916.75,VALID,0,VALID,100,VALID,-0.0169808,VALID,18.5741,VALID,134,VALID,0,
2009-06-28, 02:22:00,VALID,916.739,VALID,0,VALID,100,VALID,-0.0339617,VALID,18.5542,VALID,134,VALID,0,
2009-06-28, 02:23:00,VALID,916.72,VALID,0,VALID,100,VALID,-0.0169808,VALID,18.5576,VALID,134,VALID,0,
2009-06-28, 02:24:01,VALID,916.701,VALID,0,VALID,100,VALID,-0.0169808,VALID,18.5637,VALID,134,VALID,0,
2009-06-28, 02:25:01,VALID,916.674,VALID,0,VALID,100,VALID,0,VALID,18.5312,VALID,134,VALID,0,
2009-06-28, 02:26:01,VALID,916.655,VALID,0,VALID,100,VALID,-0.0339617,VALID,18.4854,VALID,134,VALID,0,
2009-06-28, 02:27:00,VALID,916.646,VALID,0,VALID,100,VALID,0,VALID,18.4731,VALID,134,VALID,0,
2009-06-28, 02:28:01,VALID,916.627,VALID,0,VALID,100,VALID,-0.0339617,VALID,18.4569,VALID,134,VALID,0,
2009-06-28, 02:29:00,VALID,916.63,VALID,0,VALID,100,VALID,-0.0339617,VALID,18.4439,VALID,134,VALID,0,
2009-06-28, 02:30:00,VALID,916.627,VALID,0,VALID,100,VALID,-0.0169808,VALID,18.4439,VALID,134,VALID,0,
2009-06-28, 02:31:00,VALID,916.619,VALID,0,VALID,100,VALID,-0.0339617,VALID,18.4342,VALID,134,VALID,0,
2009-06-28, 02:32:00,VALID,916.625,VALID,0,VALID,100,VALID,-0.0169808,VALID,18.4374,VALID,134,VALID,0,
2009-06-28, 02:33:00,VALID,916.625,VALID,0,VALID,100,VALID,0.0169808,VALID,18.4267,VALID,134,VALID,0,
2009-06-28, 02:34:00,VALID,916.625,VALID,0,VALID,100,VALID,0,VALID,18.4372,VALID,134,VALID,0,
2009-06-28, 02:35:00,VALID,916.633,VALID,0,VALID,100,VALID,-0.0169808,VALID,18.4661,VALID,134,VALID,0,
2009-06-28, 02:36:00,VALID,916.642,VALID,0,VALID,100,VALID,0,VALID,18.4888,VALID,134,VALID,0,
2009-06-28, 02:37:00,VALID,916.655,VALID,0,VALID,100,VALID,-0.0169808,VALID,18.4728,VALID,134,VALID,0,
2009-06-28, 02:38:00,VALID,916.663,VALID,0,VALID,100,VALID,0.0339617,VALID,18.414,VALID,134,VALID,0,
2009-06-28, 02:39:01,VALID,916.668,VALID,0,VALID,100,VALID,0,VALID,18.3718,VALID,134,VALID,0,
2009-06-28, 02:40:01,VALID,916.671,VALID,0,VALID,100,VALID,-0.0339617,VALID,18.3628,VALID,134,VALID,0,
2009-06-28, 02:41:01,VALID,916.656,VALID,0,VALID,100,VALID,-0.0169808,VALID,18.3396,VALID,134,VALID,0,
2009-06-28, 02:42:01,VALID,916.646,VALID,0,VALID,100,VALID,0,VALID,18.3044,VALID,128,VALID,0,
2009-06-28, 02:43:01,VALID,916.648,VALID,0,VALID,100,VALID,-0.0849042,VALID,18.3241,VALID,88,VALID,0,
2009-06-28, 02:44:00,VALID,916.641,VALID,0,VALID,100,VALID,-0.0679233,VALID,18.3531,VALID,88,VALID,0,
2009-06-28, 02:45:00,VALID,916.622,VALID,0,VALID,100,VALID,-0.0509425,VALID,18.4147,VALID,48,VALID,0,
2009-06-28, 02:46:00,VALID,916.597,VALID,0,VALID,100,VALID,-0.0679233,VALID,18.4504,VALID,38,VALID,0,
2009-06-28, 02:47:01,VALID,916.598,VALID,0,VALID,100,VALID,-0.0849042,VALID,18.5773,VALID,38,VALID,0,
2009-06-28, 02:48:00,VALID,916.589,VALID,0,VALID,100,VALID,-0.0679233,VALID,18.619,VALID,38,VALID,0,
2009-06-28, 02:49:01,VALID,916.591,VALID,0,VALID,100,VALID,-0.0849042,VALID,18.6035,VALID,38,VALID,0,
2009-06-28, 02:50:00,VALID,916.583,VALID,0,VALID,100,VALID,-0.0849042,VALID,18.6258,VALID,38,VALID,0,
2009-06-28, 02:51:00,VALID,916.582,VALID,0,VALID,100,VALID,-0.0679233,VALID,18.6422,VALID,38,VALID,0,
2009-06-28, 02:52:01,VALID,916.571,VALID,0,VALID,100,VALID,-0.0679233,VALID,18.6093,VALID,38,VALID,0,
2009-06-28, 02:53:01,VALID,916.549,VALID,0,VALID,100,VALID,-0.0679233,VALID,18.6612,VALID,47,VALID,0,
2009-06-28, 02:54:01,VALID,916.525,VALID,0,VALID,100,VALID,-0.0849042,VALID,18.6876,VALID,54,VALID,0,
2009-06-28, 02:55:01,VALID,916.484,VALID,0,VALID,100,VALID,-0.0679233,VALID,18.7168,VALID,59,VALID,0,
2009-06-28, 02:56:01,VALID,916.45,VALID,0,VALID,100,VALID,-0.101885,VALID,18.7296,VALID,67,VALID,0,
2009-06-28, 02:57:01,VALID,916.431,VALID,0,VALID,100,VALID,0.0509425,VALID,18.7154,VALID,81,VALID,0,
2009-06-28, 02:58:01,VALID,916.423,VALID,0,VALID,100,VALID,0.0509425,VALID,18.6959,VALID,143,VALID,0,
2009-06-28, 02:59:01,VALID,916.405,VALID,0,VALID,100,VALID,0.0169808,VALID,18.6702,VALID,171,VALID,0,
2009-06-28, 03:00:01,VALID,916.393,VALID,0,VALID,100,VALID,0,VALID,18.6436,VALID,171,VALID,0,
2009-06-28, 03:01:01,VALID,916.389,VALID,0,VALID,100,VALID,0.0169808,VALID,18.6211,VALID,154,VALID,0,
2009-06-28, 03:02:00,VALID,916.387,VALID,0,VALID,100,VALID,0.0509425,VALID,18.6209,VALID,155,VALID,0,
2009-06-28, 03:03:00,VALID,916.376,VALID,0,VALID,100,VALID,0.0339617,VALID,18.6179,VALID,161,VALID,0,
2009-06-28, 03:04:00,VALID,916.384,VALID,0,VALID,100,VALID,0.0339617,VALID,18.6308,VALID,171,VALID,0,
2009-06-28, 03:05:00,VALID,916.391,VALID,0,VALID,100,VALID,0.0169808,VALID,18.6468,VALID,175,VALID,0,
2009-06-28, 03:06:00,VALID,916.386,VALID,0,VALID,100,VALID,0,VALID,18.6603,VALID,175,VALID,0,
2009-06-28, 03:07:00,VALID,916.386,VALID,0,VALID,100,VALID,0.0169808,VALID,18.6503,VALID,175,VALID,0,
2009-06-28, 03:08:00,VALID,916.393,VALID,0,VALID,100,VALID,0.0169808,VALID,18.6925,VALID,145,VALID,0,
2009-06-28, 03:09:00,VALID,916.389,VALID,0,VALID,100,VALID,-0.0169808,VALID,18.7314,VALID,124,VALID,0,
2009-06-28, 03:10:00,VALID,916.419,VALID,0,VALID,100,VALID,0.0339617,VALID,18.7638,VALID,118,VALID,0,
2009-06-28, 03:11:00,VALID,916.444,VALID,0,VALID,100,VALID,0.0169808,VALID,18.7054,VALID,118,VALID,0,
2009-06-28, 03:12:00,VALID,916.465,VALID,0,VALID,100,VALID,-0.101885,VALID,18.6644,VALID,122,VALID,0,
2009-06-28, 03:13:00,VALID,916.482,VALID,0,VALID,100,VALID,-0.0849042,VALID,18.6387,VALID,123,VALID,0,
2009-06-28, 03:14:00,VALID,916.496,VALID,0,VALID,100,VALID,-0.0509425,VALID,18.5966,VALID,151,VALID,0,
2009-06-28, 03:15:00,VALID,916.505,VALID,0,VALID,100,VALID,-0.0679233,VALID,18.5771,VALID,161,VALID,0,
2009-06-28, 03:16:00,VALID,916.507,VALID,0,VALID,100,VALID,-0.0849042,VALID,18.5641,VALID,161,VALID,0,
2009-06-28, 03:17:00,VALID,916.508,VALID,0,VALID,100,VALID,-0.0509425,VALID,18.528,VALID,161,VALID,0,
2009-06-28, 03:18:00,VALID,916.509,VALID,0,VALID,100,VALID,-0.0509425,VALID,18.5155,VALID,161,VALID,0,
2009-06-28, 03:19:00,VALID,916.493,VALID,0,VALID,100,VALID,-0.0679233,VALID,18.5025,VALID,161,VALID,0,
2009-06-28, 03:20:00,VALID,916.504,VALID,0,VALID,100,VALID,-0.0849042,VALID,18.5122,VALID,161,VALID,0,
2009-06-28, 03:21:00,VALID,916.492,VALID,0,VALID,100,VALID,-0.0509425,VALID,18.5122,VALID,161,VALID,0,
2009-06-28, 03:22:00,VALID,916.485,VALID,0,VALID,100,VALID,-0.101885,VALID,18.5157,VALID,161,VALID,0,
2009-06-28, 03:23:00,VALID,916.493,VALID,0,VALID,100,VALID,-0.0849042,VALID,18.5155,VALID,161,VALID,0,
2009-06-28, 03:24:00,VALID,916.497,VALID,0,VALID,100,VALID,-0.0849042,VALID,18.5157,VALID,161,VALID,0,
2009-06-28, 03:25:00,VALID,916.509,VALID,0,VALID,100,VALID,-0.101885,VALID,18.5287,VALID,161,VALID,0,
2009-06-28, 03:26:00,VALID,916.517,VALID,0,VALID,100,VALID,-0.0849042,VALID,18.5641,VALID,161,VALID,0,
2009-06-28, 03:27:00,VALID,916.509,VALID,0,VALID,100,VALID,-0.0679233,VALID,18.5998,VALID,161,VALID,0,
2009-06-28, 03:28:00,VALID,916.471,VALID,0,VALID,100,VALID,-0.0509425,VALID,18.6163,VALID,149,VALID,0,
2009-06-28, 03:29:00,VALID,916.451,VALID,0,VALID,100,VALID,-0.0679233,VALID,18.7036,VALID,101,VALID,0,
2009-06-28, 03:30:00,VALID,916.443,VALID,0,VALID,100,VALID,-0.0849042,VALID,18.8074,VALID,104,VALID,0.0813954,
2009-06-28, 03:31:00,VALID,916.444,VALID,0,VALID,100,VALID,-0.0849042,VALID,18.8104,VALID,75,VALID,0,
2009-06-28, 03:32:00,VALID,916.451,VALID,0,VALID,100,VALID,-0.0849042,VALID,18.7296,VALID,34,VALID,0,
2009-06-28, 03:33:00,VALID,916.452,VALID,0,VALID,100,VALID,-0.0849042,VALID,18.6939,VALID,32,VALID,0,
2009-06-28, 03:34:00,VALID,916.436,VALID,0,VALID,100,VALID,-0.0509425,VALID,18.6781,VALID,63,VALID,0,
2009-06-28, 03:35:00,VALID,916.449,VALID,0,VALID,100,VALID,-0.0679233,VALID,18.6517,VALID,110,VALID,0,
2009-06-28, 03:36:00,VALID,916.442,VALID,0,VALID,100,VALID,-0.0679233,VALID,18.7263,VALID,114,VALID,0,
2009-06-28, 03:37:00,VALID,916.441,VALID,0,VALID,100,VALID,-0.0849042,VALID,18.6614,VALID,116,VALID,0,
2009-06-28, 03:38:00,VALID,916.44,VALID,0,VALID,100,VALID,-0.0339617,VALID,18.6417,VALID,116,VALID,0,
2009-06-28, 03:39:00,VALID,916.434,VALID,0,VALID,100,VALID,-0.0679233,VALID,18.655,VALID,121,VALID,0,
2009-06-28, 03:40:00,VALID,916.442,VALID,0,VALID,100,VALID,-0.0849042,VALID,18.6355,VALID,127,VALID,0,
2009-06-28, 03:41:00,VALID,916.43,VALID,0,VALID,100,VALID,-0.101885,VALID,18.6163,VALID,133,VALID,0,
2009-06-28, 03:42:00,VALID,916.423,VALID,0,VALID,100,VALID,-0.0509425,VALID,18.616,VALID,130,VALID,0,
2009-06-28, 03:43:00,VALID,916.413,VALID,0,VALID,100,VALID,-0.0169808,VALID,18.6061,VALID,130,VALID,0,
2009-06-28, 03:44:00,VALID,916.405,VALID,0,VALID,100,VALID,-0.0169808,VALID,18.5864,VALID,131,VALID,0,
2009-06-28, 03:45:00,VALID,916.385,VALID,0,VALID,100,VALID,0,VALID,18.5926,VALID,135,VALID,0,
2009-06-28, 03:46:00,VALID,916.37,VALID,0,VALID,100,VALID,-0.0169808,VALID,18.5769,VALID,149,VALID,0,
2009-06-28, 03:47:00,VALID,916.362,VALID,0,VALID,100,VALID,0.0169808,VALID,18.5602,VALID,155,VALID,0.00163517,
2009-06-28, 03:48:00,VALID,916.348,VALID,0,VALID,100,VALID,0,VALID,18.5604,VALID,159,VALID,0.15189,
2009-06-28, 03:49:00,VALID,916.346,VALID,0,VALID,100,VALID,0,VALID,18.5704,VALID,159,VALID,0.0416667,
2009-06-28, 03:50:00,VALID,916.344,VALID,0,VALID,100,VALID,0.0169808,VALID,18.5535,VALID,156,VALID,0.0466933,
2009-06-28, 03:51:00,VALID,916.319,VALID,0,VALID,100,VALID,0,VALID,18.5669,VALID,162,VALID,0,